Weather in Leninkent

Russia / Republic of Dagestan     42°29′03″N   47°45′12″E
temp.,
°C
wind,
m/s
gust,
m/s
humid.,
%
clouds,
%
prec.,
mm/h
press.,
hPa
HPBL,
m
14 may, fri
fri1400:00+15s226624 0.0 101412
03:00+15s22649 0.0 101412
06:00+19s33521 0.0 101442
09:00+24se56460 0.0 1014385
12:00+25se610420 0.0 1015752
15:00+24se611471 0.0 1014630
18:00+21s446057 0.0 101461
21:00+20ssw3349100 0.0 101522
15 may, sat
sat1500:00+18ssw22535 0.0 101416
03:00+18ssw44440 0.0 101326
06:00+20ssw33510 0.0 101427
09:00+24ese46410 0.0 1014530
12:00+25ese68380 0.0 1014707
15:00+25se69340 0.0 1013591
18:00+21sse45440 0.0 101464
21:00+19ssw33335 0.0 101415
16 may, sun
sun1600:00+17sw22407 0.0 101213
03:00+18ssw33484 0.0 101216
06:00+20s345512 0.0 101246
09:00+24se59330 0.0 1011739
12:00+26se810320 0.0 1010968
15:00+25se813360 0.0 1009729
18:00+20se47520 0.0 1009138
21:00+18s33501 0.0 100927
17 may, mon
mon1700:00+18s22500 0.0 100816
03:00+17s33460 0.0 100820
06:00+19s22475 0.0 100837
09:00+23ese334342 0.0 1007309
12:00+24ese444453 0.0 1007468
15:00+23e324913 0.0 1006291
18:00+20se11665 0.0 100651
21:00+18w116779 0.0 100612
18 may, tue
tue1800:00+19wnw33526 0.0 100731
03:00+18wnw224735 0.0 100718
06:00+20nw2351100 0.0 100847
09:00+23n4660100 0.0 1008524
12:00+24nne675763 0.0 10091078
15:00+21n61067100 0.8 1010918
18:00+19w237791 1.0 1011115
21:00+18sw3375100 1.1 101332